Location: Newark
(43.6583°N, 1.6617°E)
Time: 19:21:54
(UTC+00:00)

Tiros 1 - Pass Details

Date: 31 August 2019
Orbit: 630 x 664 km, 48.4° (Epoch: 18 October)

Event Time Altitude Azimuth Distance (km) Brightness Sun altitude
Rises 22:28:55 0° 271° (W) 2,914 10.8 -34.4°
Enters shadow 22:30:53 - 276° (W) 2,168 10.2 -34.6°
Reaches altitude 10° 22:31:19 10° 277° (W) 2,006 - -34.6°
Maximum altitude 22:35:47 48° 353° (N) 822 - -35.0°
Drops below altitude 10° 22:40:16 10° 68° (ENE) 2,014 - -35.3°
Sets 22:42:40 0° 74° (ENE) 2,926 - -35.4°
